CZ-4C DEB, 43410

Orbit data source: Space-Track

CZ-4C DEB, 43410 is space debris in SSO originally from a launch on Mon, 23 Sep 2013 UTC launched from the Taiyaun Space Center, China (TSC). Debris objects in space refer to the collection of defunct objects orbiting the Earth. Examples of debris include non-operational satellites, rocket bodies, and fragments generated from explosions, collisions, or faulty payload assembly.

Loading next visibility...
Identifier
43410, 2013-052E
Orbit
SSO
Country
Flag of CNCN / PRC
Related business
Manufacturer
SAST
Mission
Spacecraft
Bus & Motor
Unknown
Mass
Unknown
Launch date (UTC)
2013-09-23 (13 years ago)
Launch vehicle
Unknown
Launch site
Taiyaun Space Center, China (TSC)
Object type
Payload
Rocket body
Debris
Shape & HBR
Unknown shape, 0.1 m
Radar Cross Section
Small (<0.1 m²)

Expand to show TLE details & history
Last TLE update: 3 days ago

TLE from 3 days ago
0 CZ-4C DEB
1 43410U 13052E   26170.65901879  .00000151  00000-0  15624-3 0  9992
2 43410  98.8202 314.2600 0242811  39.3300 322.5211 13.76486559630879
Epoch: 2026-06-19T15:48Z
TLE epoch observation values (Epoch: 2026-06-19T15:48:59.223Z)
Latitude
0.00001°
Longitude
169.12841°
Altitude
839.139 km
Speed
7.504 km/s
True Right ascension
20h 57m 02s
True Declination
0° 00' 00"
Sunlit
Object was in full shadow at epoch
Visualization orbit readout
Latitude
Unknown
Longitude
Unknown
Altitude
Unknown
Speed
Unknown
Apparent Right ascension
Unknown
Apparent Declination
Unknown
Sunlit
N/A
Visualization observer readout
Local Sidereal Time
21:33:04
Azimuth
Unknown
Elevation
Unknown
Doppler factor
Unknown
Orbital elements
Apogee altitude
1,152.103 km
Perigee altitude
795.087 km
Semi-major axis
7,351.732 km
Eccentricity
0.02428
Inclination
98.8202°
RAAN
314.26°
Arg. of periapsis
39.33°
True anomaly
320.78661°
Mean anomaly
322.5211°
Eccentric anomaly
321.65806°
Mean motion
3.44317 °/min
Orbital period
104.55 mins
BSTAR
0.00015624
Loading maneuver chart data...
Computing Atmospheric mass density...
Loading historical data...
Loading historical data...
Loading historical data...
Loading historical data...
Loading historical data...
Loading historical data...
Loading historical data...
Other satellites on launch #52 in the year 2013 (2013-09-23 UTC)

Documentation

Showing up to 5 results
|